TimeMDT,TemperatureF,Dew PointF,Humidity,Sea Level PressureIn,VisibilityMPH,Wind Direction,Wind SpeedMPH,Gust SpeedMPH,PrecipitationIn,Events,Conditions,WindDirDegrees,DateUTC
12:15 AM,73.4,35.6,25,29.79,10.0,SW,21.9,35.7,N/A,,Mostly Cloudy,220,2013-09-18 06:15:00
12:35 AM,73.4,33.8,23,29.80,10.0,SSW,12.7,28.8,N/A,,Scattered Clouds,200,2013-09-18 06:35:00
12:55 AM,71.6,35.6,27,29.79,10.0,SSW,17.3,26.5,N/A,,Scattered Clouds,210,2013-09-18 06:55:00
1:15 AM,73.4,33.8,23,29.80,10.0,SSW,21.9,34.5,N/A,,Clear,200,2013-09-18 07:15:00
1:35 AM,73.4,33.8,23,29.80,10.0,SW,16.1,35.7,N/A,,Scattered Clouds,220,2013-09-18 07:35:00
1:55 AM,71.6,33.8,25,29.80,10.0,SSW,19.6,33.4,N/A,,Scattered Clouds,200,2013-09-18 07:55:00
2:15 AM,71.6,33.8,25,29.80,10.0,SSW,15.0,26.5,N/A,,Scattered Clouds,210,2013-09-18 08:15:00
2:35 AM,71.6,33.8,25,29.80,10.0,SW,19.6,27.6,N/A,,Clear,230,2013-09-18 08:35:00
2:55 AM,69.8,33.8,27,29.80,10.0,SW,21.9,28.8,N/A,,Clear,220,2013-09-18 08:55:00
3:15 AM,69.8,33.8,27,29.80,10.0,SW,19.6,29.9,N/A,,Clear,220,2013-09-18 09:15:00
3:35 AM,69.8,35.6,28,29.81,10.0,SW,20.7,28.8,N/A,,Clear,220,2013-09-18 09:35:00
3:55 AM,68.0,35.6,30,29.81,10.0,SSW,16.1,25.3,N/A,,Clear,210,2013-09-18 09:55:00
4:15 AM,68.0,35.6,30,29.82,10.0,SW,18.4,31.1,N/A,,Clear,220,2013-09-18 10:15:00
4:35 AM,66.2,37.4,35,29.82,10.0,SW,18.4,24.2,N/A,,Clear,220,2013-09-18 10:35:00
4:55 AM,62.6,41.0,45,29.84,10.0,WSW,9.2,-,N/A,,Clear,240,2013-09-18 10:55:00
5:15 AM,62.6,39.2,42,29.85,10.0,SW,9.2,-,N/A,,Clear,220,2013-09-18 11:15:00
5:35 AM,60.8,37.4,42,29.86,10.0,West,8.1,-,N/A,,Clear,260,2013-09-18 11:35:00
5:55 AM,59.0,39.2,48,29.88,10.0,North,5.8,-,N/A,,Clear,360,2013-09-18 11:55:00
6:15 AM,53.6,39.2,58,29.89,10.0,ESE,8.1,-,N/A,,Clear,120,2013-09-18 12:15:00
6:35 AM,55.4,37.4,51,29.91,10.0,ESE,10.4,-,N/A,,Clear,110,2013-09-18 12:35:00
6:55 AM,53.6,37.4,54,29.91,10.0,ESE,10.4,-,N/A,,Clear,120,2013-09-18 12:55:00
7:15 AM,51.8,37.4,58,29.92,10.0,ESE,10.4,-,N/A,,Clear,120,2013-09-18 13:15:00
7:35 AM,53.6,37.4,54,29.94,10.0,ESE,11.5,-,N/A,,Clear,120,2013-09-18 13:35:00
7:55 AM,53.6,37.4,54,29.95,10.0,ESE,9.2,-,N/A,,Clear,110,2013-09-18 13:55:00
8:15 AM,55.4,35.6,47,29.96,10.0,East,5.8,-,N/A,,Clear,100,2013-09-18 14:15:00
8:35 AM,59.0,37.4,45,29.96,10.0,East,4.6,-,N/A,,Clear,80,2013-09-18 14:35:00
8:55 AM,59.0,37.4,45,29.97,10.0,Calm,Calm,-,N/A,,Clear,0,2013-09-18 14:55:00
9:15 AM,60.8,37.4,42,29.98,10.0,East,3.5,-,N/A,,Clear,80,2013-09-18 15:15:00
9:35 AM,62.6,33.8,34,29.98,10.0,Calm,Calm,-,N/A,,Clear,0,2013-09-18 15:35:00
9:55 AM,62.6,33.8,34,29.98,10.0,NE,4.6,-,N/A,,Clear,40,2013-09-18 15:55:00
10:15 AM,62.6,37.4,39,29.98,10.0,ENE,6.9,-,N/A,,Clear,60,2013-09-18 16:15:00
10:35 AM,62.6,35.6,37,29.99,10.0,NE,4.6,-,N/A,,Clear,50,2013-09-18 16:35:00
10:55 AM,64.4,35.6,34,29.99,10.0,NNE,5.8,-,N/A,,Clear,30,2013-09-18 16:55:00
11:15 AM,64.4,35.6,34,30.00,10.0,Calm,Calm,-,N/A,,Clear,0,2013-09-18 17:15:00
11:35 AM,64.4,35.6,34,30.00,10.0,NE,4.6,-,N/A,,Clear,40,2013-09-18 17:35:00
11:55 AM,64.4,33.8,32,30.00,10.0,Calm,Calm,-,N/A,,Clear,0,2013-09-18 17:55:00
12:15 PM,64.4,37.4,37,30.00,10.0,North,8.1,-,N/A,,Clear,350,2013-09-18 18:15:00
12:35 PM,64.4,35.6,34,29.99,10.0,North,6.9,-,N/A,,Clear,10,2013-09-18 18:35:00
12:55 PM,66.2,35.6,32,29.99,10.0,Calm,Calm,-,N/A,,Clear,0,2013-09-18 18:55:00
1:15 PM,68.0,41.0,37,29.99,10.0,SW,9.2,-,N/A,,Clear,230,2013-09-18 19:15:00
1:35 PM,68.0,39.2,35,29.98,10.0,SW,16.1,-,N/A,,Clear,230,2013-09-18 19:35:00
1:55 PM,69.8,41.0,35,29.98,10.0,SW,9.2,-,N/A,,Clear,230,2013-09-18 19:55:00
2:15 PM,69.8,41.0,35,29.98,10.0,WSW,12.7,-,N/A,,Clear,240,2013-09-18 20:15:00
2:35 PM,69.8,41.0,35,29.99,10.0,WSW,13.8,18.4,N/A,,Clear,240,2013-09-18 20:35:00
2:55 PM,69.8,39.2,33,29.99,10.0,SW,9.2,-,N/A,,Clear,230,2013-09-18 20:55:00
3:15 PM,69.8,37.4,31,29.99,10.0,SW,15.0,18.4,N/A,,Clear,230,2013-09-18 21:15:00
3:35 PM,69.8,37.4,31,29.99,10.0,SW,12.7,16.1,N/A,,Clear,220,2013-09-18 21:35:00
3:55 PM,69.8,37.4,31,29.98,10.0,SW,10.4,-,N/A,,Clear,230,2013-09-18 21:55:00
4:15 PM,69.8,37.4,31,29.98,10.0,WSW,9.2,-,N/A,,Clear,240,2013-09-18 22:15:00
4:35 PM,68.0,37.4,33,29.99,10.0,SW,11.5,-,N/A,,Clear,230,2013-09-18 22:35:00
4:55 PM,68.0,37.4,33,29.99,10.0,SW,10.4,-,N/A,,Clear,230,2013-09-18 22:55:00
5:15 PM,68.0,35.6,30,29.99,10.0,WSW,12.7,19.6,N/A,,Clear,240,2013-09-18 23:15:00
5:35 PM,66.2,35.6,32,29.99,10.0,SW,13.8,-,N/A,,Clear,220,2013-09-18 23:35:00
5:55 PM,66.2,35.6,32,30.00,10.0,SW,15.0,-,N/A,,Clear,230,2013-09-18 23:55:00
6:15 PM,64.4,35.6,34,29.99,10.0,SW,16.1,21.9,N/A,,Clear,220,2013-09-19 00:15:00
6:35 PM,60.8,35.6,39,29.99,10.0,SW,10.4,-,N/A,,Clear,230,2013-09-19 00:35:00
6:55 PM,60.8,33.8,36,30.01,10.0,SW,10.4,-,N/A,,Clear,230,2013-09-19 00:55:00
7:15 PM,60.8,35.6,39,30.01,10.0,WNW,6.9,-,N/A,,Clear,290,2013-09-19 01:15:00
7:35 PM,59.0,33.8,39,30.02,10.0,WNW,5.8,-,N/A,,Clear,300,2013-09-19 01:35:00
7:55 PM,55.4,33.8,44,30.03,10.0,WSW,3.5,-,N/A,,Clear,250,2013-09-19 01:55:00
8:15 PM,51.8,35.6,54,30.05,10.0,East,5.8,-,N/A,,Clear,100,2013-09-19 02:15:00
8:35 PM,51.8,35.6,54,30.05,10.0,ESE,10.4,-,N/A,,Clear,110,2013-09-19 02:35:00
8:55 PM,50.0,33.8,54,30.07,10.0,ESE,9.2,-,N/A,,Clear,110,2013-09-19 02:55:00
9:15 PM,48.2,32.0,54,30.08,10.0,ESE,9.2,-,N/A,,Clear,110,2013-09-19 03:15:00
9:35 PM,46.4,32.0,57,30.09,10.0,East,8.1,-,N/A,,Clear,100,2013-09-19 03:35:00
9:55 PM,46.4,32.0,57,30.09,10.0,ESE,6.9,-,N/A,,Clear,110,2013-09-19 03:55:00
10:15 PM,46.4,32.0,57,30.10,10.0,NNE,4.6,-,N/A,,Clear,30,2013-09-19 04:15:00
10:35 PM,48.2,32.0,54,30.11,10.0,Calm,Calm,-,N/A,,Clear,0,2013-09-19 04:35:00
10:55 PM,42.8,33.8,70,30.11,10.0,Calm,Calm,-,N/A,,Clear,0,2013-09-19 04:55:00
11:15 PM,42.8,33.8,70,30.12,10.0,East,4.6,-,N/A,,Clear,90,2013-09-19 05:15:00
11:35 PM,39.2,33.8,81,30.12,10.0,SSE,3.5,-,N/A,,Clear,150,2013-09-19 05:35:00
11:55 PM,37.4,32.0,81,30.12,10.0,East,4.6,-,N/A,,Clear,100,2013-09-19 05:55:00